SCISAT 1

Last updated on Fri Sep 11 2026 00:03:31 GMT+0000 (Coordinated Universal Time)

1 27858U 03036A 26253.44546829 .00000418 00000+0 57871-4 0 9996 2 27858 73.9323 1.9304 0006485 37.2623 322.9002 14.81533822244074
UTC large
Height (km)
Speed (km/s)
/
Latitude / Longitude
Inclination (degrees)
Orbital Period (minutes)
Azimuth
Elevation
Range (km)
Doppler Factor

Next 0 passes for location: London (51.5072 / 0.1276)

No passes found over London.
SCISAT 1